Probability
0 0 0 0 0 0 0 0 0 0 0 0 0 0 0 0 0 0 0 0 0 0 0 0 0 0 0 0 0 0 0 0 0 0 0 0 0 0 0 0 0 0 0
0 0 0 0 0 0 0 0 0 0 0 0 0 0 0 0 0 0 0 0 0 0 0 0 0 0 0 0 0 0 0 0 0 0 0 0 0 0 0 0 0 0 0
0 0 0 0 0 0 0 0 0 0 0 0 0 0 0 0 0 0 0 0 0 0 0 0 0 0 0 0 0 0 0 0 0 0 0 0 0 0 0 0 0 0 0
0 0 0 0 0 0 0 0 0 0 0 0 0 0 0 0 0 0 0 0 0 0 0 0 0 0 0 0 0 0 0 0 0 0 0 0 0 0 0 0 0 0 0
0 0 0 0 0 0 0 0 0 0 0 0 0 0 0 0 0 0 0 0 0 0 0 0 0 0 0 0 0 0 0 0 0 0 0 0 0 0 0 0 0 0 0
0 0 0 0 0 0 0 0 0 0 0 0 0 0 0 0 0 0 0 0 0 0 0 0 0 0 0 0 0 0 0 0 0 0 0 0 0 0 0 0 0 0 0
0 0 0 0 0 0 0 0 0 0 0 0 0 0 0 0 0 0 0 0 0 0 0 0 0 0 0 0 0 0 0 0 0 0 0 0 0 0 0 0 0 0 0
0 0 0 0 0 0 0 0 0 0 0 0 0 0 0 0 0 0 0 0 0 0 0 0 0 0 0 0 0 0 0 0 0 0 0 0 0 0 0 0 0 0 0
0 0 0 0 0 0 0 0 0 0 0 0 0 0 0 0 0 0 0 0 0 0 0 0 0 0 0 0 0 0 0 0 0 0 0 0 0 0 0 0 0 0 0
0 0 0 0 0 0 0 0 0 0 0 0 0 0 0 0 0 0 0 0 0 0 0 0 0 0 0 0 0 0 0 0 0 0 0 0 0 0 0 0 0 0 0
0 0 0 0 0 0 0 0 0 0 0 0 0 0 0 0 0 0 0 0 0 0 0 0 0 0 0 0 0 0 0 0 0 0 0 0 0 0 0 0 0 0 0
0 0 0 0 0 0 0 0 0 0 0 0 0 0 0 0 0 0 0 0 0 0 0 0 0 0 0 0 0 0 0 0 0 0 0 0 0 0 0 0 0 0 0
0 0 0 0 0 0 0 0 0 0 0 0 0 0 0 0 0 0 0 0 0 0 0 0 0 0 0 0 0 0 0 0 0 0 0 0 0 0 0 0 0 0 0
0 0 0 0 0 0 0 0 0 0 0 0 0 0 0 0 0 0 0 0 0 0 0 0 0 0 0 0 0 0 0 0 0 0 0 0 0 0 0 0 0 0 0
0 0 0 0 0 0 0 0 0 0 0 0 0 0 0 0 0 0 0 0 0 0 0 0 0 0 0 0 0 0 0 0 0 0 0 0 0 0 0 0 0 0 0
0 0 0 0 0 0 0 0 0 0 0 0 0 0 0 0 0 0 0 0 0 0 0 0 0 0 0 0 0 0 0 0 0 0 0 0 0 0 0 0 0 0 0
0 0 0 0 0 0 0 0 0 0 0 0 0 0 0 0 0 0 0 0 0 0 0 0 0 0 0 0 0 0 0 0 0 0 0 0 0 0 0 0 0 0 0
0 0 0 0 0 0 0 0 0 0 0 0 0 0 0 0 0 0 0 0 0 0 0 0 0 0 0 0 0 0 0 0 0 0 0 0 0 0 0 0 0 0 0
0 0 0 0 0 0 0 0 0 0 0 0 0 0 0 0 0 0 0 0 0 0 0 0 0 0 0 0 0 0 0 0 0 0 0 0 0 0 0 0 0 0 0
0 0 0 0 0 0 0 0 0 0 0 0 0 0 0 0 0 0 0 0 0 0 0 0 0 0 0 0 0 0 0 0 0 0 0 0 0 0 0 0 0 0 0
0 0 0 0 0 0 0 0 0 0 0 0 0 0 0 0 0 0 0 0 0 0 0 0 0 0 0 0 0 0 0 0 0 0 0 0 0 0 0 0 0 0 0
0 0 0 0 0 0 0 0 0 0 0 0 0 0 0 0 0 0 0 0 0 0 0 0 0 0 0 0 0 0 0 0 0 0 0 0 0 0 0 0 0 0 0
0 0 0 0 0 0 0 0 0 0 0 0 0 0 0 0 0 0 0 0 0 0 0 0 0 0 0 0 0 0 0 0 0 0 0 0 0 0 0 0 0 0 0
0 0 0 0 0 0 0 0 0 0 0 0 0 0 0 0 0 0 0 0 0 0 0 0 0 0 0 0 0 0 0 0 0 0 0 0 0 0 0 0 0 0 0
0 0 0 0 0 0 0 0 0 0 0 0 0 0 0 0 0 0 0 0 0 0 0 0 0 0 0 0 0 0 0 0 0 0 0 0 0 0 0 0 0 0 0
0 0 0 0 0 0 0 0 0 0 0 0 0 0 0 0 0 0 0 0 0 0 0 0 0 0 0 0 0 0 0 0 0 0 0 0 0 0 0 0 0 0 0
Height
5771 5775 5778 5781 5784 5788 5791 5794 5798 5801 5804 5808 5811 5813 5816 5819 5822 5824 5826 5828 5830 5831 5832 5833 5833 5834 5834 5835 5835 5835 5834 5834 5834 5833 5833 5832 5831 5830 5829 5828 5827 5826 5825
5763 5767 5771 5774 5777 5780 5784 5787 5791 5795 5798 5801 5805 5808 5810 5813 5816 5818 5821 5822 5824 5825 5827 5828 5828 5829 5829 5830 5830 5830 5829 5829 5829 5828 5828 5827 5826 5825 5824 5823 5822 5821 5819
5754 5759 5763 5766 5770 5773 5776 5780 5784 5788 5792 5795 5798 5802 5804 5807 5810 5812 5815 5816 5818 5820 5821 5822 5823 5823 5824 5824 5824 5824 5824 5824 5823 5823 5822 5821 5820 5819 5818 5817 5816 5815 5813
5746 5750 5754 5758 5762 5765 5769 5773 5777 5780 5784 5788 5792 5795 5798 5800 5803 5806 5808 5810 5812 5814 5815 5816 5817 5817 5818 5818 5818 5818 5818 5818 5817 5817 5816 5815 5814 5813 5812 5811 5810 5808 5807
5737 5741 5745 5750 5754 5757 5761 5765 5769 5773 5777 5781 5784 5788 5791 5794 5797 5799 5801 5803 5805 5807 5808 5809 5810 5811 5811 5812 5812 5812 5812 5812 5811 5810 5810 5809 5808 5806 5805 5804 5803 5801 5799
5728 5732 5736 5740 5745 5749 5753 5757 5761 5765 5769 5773 5777 5780 5784 5787 5789 5791 5794 5796 5798 5800 5801 5802 5803 5804 5805 5805 5805 5805 5805 5805 5804 5804 5803 5802 5801 5799 5798 5797 5795 5794 5792
5719 5723 5727 5731 5736 5740 5745 5749 5753 5757 5761 5765 5769 5772 5776 5779 5782 5784 5786 5789 5790 5792 5794 5795 5796 5797 5798 5798 5798 5798 5798 5797 5797 5796 5795 5794 5793 5792 5790 5789 5787 5785 5784
5710 5714 5718 5722 5726 5730 5735 5740 5744 5748 5752 5756 5761 5764 5768 5771 5774 5776 5779 5781 5783 5784 5786 5788 5788 5789 5790 5791 5791 5790 5790 5790 5789 5788 5787 5786 5785 5783 5782 5780 5778 5777 5775
5701 5705 5708 5713 5717 5721 5726 5731 5735 5740 5744 5748 5752 5756 5759 5763 5766 5768 5770 5773 5775 5777 5778 5779 5780 5781 5782 5782 5782 5782 5782 5781 5781 5780 5779 5777 5776 5774 5773 5771 5769 5767 5765
5692 5696 5699 5704 5708 5712 5717 5721 5726 5731 5735 5739 5743 5746 5750 5754 5757 5760 5762 5764 5766 5768 5769 5770 5771 5772 5773 5773 5773 5773 5773 5772 5771 5770 5769 5768 5766 5765 5763 5761 5759 5757 5755
5684 5687 5691 5694 5699 5703 5708 5712 5717 5721 5726 5730 5734 5738 5741 5744 5747 5750 5753 5755 5757 5758 5760 5761 5762 5762 5763 5763 5764 5764 5763 5763 5762 5761 5759 5758 5757 5755 5753 5751 5748 5746 5744
5676 5679 5682 5685 5690 5694 5699 5703 5707 5712 5716 5720 5725 5728 5731 5734 5737 5740 5743 5745 5747 5749 5750 5751 5752 5753 5753 5753 5753 5753 5753 5752 5751 5750 5749 5747 5746 5744 5741 5739 5737 5735 5733
5668 5670 5673 5676 5681 5685 5689 5693 5698 5702 5706 5710 5715 5718 5722 5724 5727 5730 5732 5735 5737 5738 5740 5741 5742 5742 5743 5743 5743 5743 5742 5741 5740 5739 5737 5736 5734 5732 5730 5728 5725 5723 5720
5659 5662 5664 5668 5672 5676 5680 5684 5688 5692 5696 5700 5704 5708 5711 5713 5716 5719 5721 5724 5726 5728 5729 5730 5731 5731 5732 5732 5731 5731 5731 5730 5728 5727 5725 5724 5722 5720 5717 5715 5712 5710 5707
5650 5653 5655 5659 5663 5666 5670 5674 5678 5682 5686 5689 5693 5697 5700 5703 5705 5708 5710 5712 5715 5716 5718 5719 5720 5720 5720 5720 5720 5719 5719 5718 5716 5715 5713 5711 5709 5707 5704 5702 5699 5697 5694
5642 5644 5647 5650 5654 5657 5661 5665 5668 5672 5675 5679 5682 5686 5688 5691 5694 5697 5699 5701 5703 5704 5706 5708 5708 5708 5708 5708 5708 5707 5706 5705 5704 5702 5700 5698 5695 5693 5690 5688 5685 5683 5680
5633 5636 5638 5641 5644 5647 5651 5654 5658 5661 5664 5667 5670 5674 5677 5679 5682 5685 5687 5689 5691 5692 5694 5695 5695 5695 5696 5696 5695 5695 5694 5692 5691 5689 5686 5684 5681 5679 5676 5674 5671 5668 5665
5625 5627 5629 5632 5635 5638 5641 5644 5646 5649 5653 5656 5659 5662 5665 5668 5670 5672 5674 5676 5678 5679 5681 5682 5682 5682 5683 5682 5682 5681 5680 5679 5677 5675 5672 5670 5667 5664 5661 5659 5656 5653 5649
5617 5619 5621 5623 5626 5628 5631 5633 5636 5639 5642 5645 5648 5651 5653 5656 5658 5660 5661 5663 5665 5666 5667 5668 5669 5669 5669 5669 5668 5668 5666 5665 5663 5660 5658 5655 5652 5649 5647 5644 5640 5637 5633
5609 5611 5613 5614 5617 5619 5621 5623 5626 5628 5631 5633 5636 5639 5641 5643 5646 5647 5649 5650 5652 5653 5654 5655 5656 5656 5656 5655 5654 5654 5653 5651 5649 5646 5643 5641 5638 5635 5632 5629 5625 5622 5618
5600 5602 5604 5605 5607 5609 5611 5613 5616 5618 5621 5623 5625 5628 5630 5631 5633 5635 5637 5638 5639 5640 5641 5641 5642 5642 5642 5641 5640 5640 5638 5636 5634 5631 5629 5626 5623 5620 5617 5613 5609 5606 5602
5592 5593 5595 5596 5597 5599 5601 5603 5606 5608 5610 5613 5615 5617 5618 5619 5621 5623 5624 5625 5626 5627 5627 5627 5628 5628 5627 5626 5626 5624 5623 5622 5620 5618 5615 5611 5608 5605 5601 5598 5594 5590 5586
5583 5584 5586 5587 5588 5589 5591 5593 5595 5597 5600 5602 5603 5605 5607 5608 5609 5610 5611 5612 5612 5612 5612 5613 5613 5613 5612 5612 5610 5609 5607 5605 5603 5601 5599 5597 5592 5589 5586 5582 5578 5574 5569
5575 5575 5576 5577 5578 5580 5581 5583 5585 5586 5588 5590 5592 5593 5595 5596 5596 5597 5598 5599 5599 5599 5598 5599 5599 5598 5597 5595 5594 5592 5590 5589 5587 5584 5582 5580 5577 5573 5570 5565 5561 5557 5552
5566 5567 5567 5568 5569 5569 5571 5573 5574 5576 5577 5579 5580 5582 5583 5583 5584 5584 5585 5586 5586 5585 5584 5584 5583 5582 5581 5580 5578 5576 5574 5572 5571 5569 5565 5563 5560 5557 5554 5550 5545 5540 5536
5558 5558 5558 5559 5559 5560 5561 5563 5564 5565 5567 5568 5569 5570 5571 5571 5571 5571 5571 5571 5572 5571 5571 5570 5569 5568 5566 5565 5563 5561 5559 5556 5554 5553 5549 5546 5543 5540 5538 5535 5529 5524 5520
Wind_Speed
38 37 37 37 37 37 37 36 34 34 34 33 32 31 30 29 28 26 25 25 25 24 24 23 23 22 22 22 21 21 21 21 22 22 23 23 23 24 24 24 24 25 25
38 38 37 37 37 38 38 38 36 34 34 35 35 34 32 31 29 28 27 27 26 26 25 25 24 23 23 23 23 24 24 24 24 24 25 25 26 26 26 26 26 26 27
38 38 39 38 38 38 38 38 37 37 37 35 35 35 35 34 32 30 29 28 28 28 27 27 26 26 25 25 26 26 26 26 26 26 27 28 28 28 28 28 28 29 29
39 39 40 40 39 39 39 39 39 38 38 38 37 36 35 35 34 32 30 29 29 30 29 28 28 28 28 27 27 28 28 28 28 29 29 29 30 30 30 31 31 31 31
39 39 40 41 41 40 41 40 39 39 39 39 39 38 37 35 35 35 33 32 31 31 31 31 30 30 30 30 30 30 30 30 30 31 31 32 32 32 32 33 33 34 34
40 39 41 41 42 42 42 43 42 41 40 39 40 40 39 38 37 37 35 33 32 32 32 32 32 32 32 32 32 32 32 32 32 33 33 34 34 34 34 35 35 35 36
40 39 41 41 42 42 42 41 41 41 41 40 40 41 39 39 38 38 37 36 35 34 34 34 34 35 34 34 34 34 34 35 34 34 35 35 35 35 36 36 37 37 38
41 40 40 41 42 42 43 43 42 42 42 41 40 40 39 39 39 39 39 37 36 36 36 35 36 36 36 35 36 36 36 36 36 37 37 37 38 38 39 39 39 40 40
41 42 40 42 42 43 42 42 41 42 42 42 42 41 40 40 40 40 40 39 38 37 37 37 37 37 37 37 37 37 37 37 37 38 39 40 40 41 41 41 41 42 42
40 43 41 42 43 43 43 43 42 42 42 42 41 41 41 41 42 42 41 41 40 39 39 39 38 39 38 38 39 39 39 40 40 41 41 41 42 42 43 43 43 44 44
39 41 42 43 44 44 45 45 44 43 43 43 42 42 42 42 43 43 42 41 41 42 42 41 41 40 41 41 40 41 41 42 42 43 43 44 44 44 45 45 45 46 46
37 39 40 41 43 44 45 45 45 45 43 43 43 43 43 42 42 42 43 42 42 42 43 41 41 42 42 42 42 43 42 43 44 45 45 46 46 47 47 47 48 48 48
35 36 39 41 43 44 45 46 45 46 46 45 44 44 44 43 44 43 43 43 43 43 43 43 43 43 43 43 43 44 44 45 46 46 47 47 48 48 49 49 50 50 50
34 35 37 40 42 44 45 45 46 46 47 48 47 45 45 44 44 44 43 43 43 43 43 43 44 44 44 45 45 46 47 48 48 48 49 49 49 50 51 52 52 51 51
34 37 37 38 41 42 44 46 46 47 47 48 48 47 46 45 45 45 45 44 44 44 44 44 44 45 45 45 45 46 47 48 48 49 50 51 51 52 52 53 53 53 53
33 36 38 39 40 42 43 44 46 47 47 48 48 48 47 47 47 47 47 46 46 46 46 45 46 46 46 47 47 48 48 48 49 50 51 52 53 53 54 54 54 54 55
33 34 36 38 39 40 42 43 45 46 46 47 48 48 49 48 47 48 48 47 46 46 47 47 47 47 47 47 47 47 48 49 50 51 52 52 53 55 56 56 56 57 57
34 35 36 36 37 39 41 42 43 43 45 46 47 48 48 47 48 49 49 48 47 46 47 47 48 48 48 48 48 48 50 51 51 52 53 54 55 56 56 57 58 59 59
33 35 37 38 38 38 39 39 40 42 44 45 45 46 46 47 47 47 48 48 48 47 47 47 48 49 49 49 49 50 51 52 53 53 54 55 56 57 57 59 59 59 59
31 34 35 36 38 38 38 38 39 40 41 42 43 44 44 45 46 47 48 49 49 49 49 48 49 50 50 51 51 52 52 53 54 55 56 56 57 58 59 59 59 59 60
31 32 33 34 35 36 36 37 38 38 40 41 43 44 44 45 45 46 48 48 49 50 50 50 50 51 52 52 53 54 54 55 55 56 57 58 58 58 59 59 60 60 60
32 33 33 33 34 35 36 37 38 39 40 41 43 45 45 44 45 46 47 48 49 50 51 51 52 52 53 54 55 56 56 56 56 57 58 58 59 59 59 60 61 61 61
31 32 33 34 35 36 37 38 39 39 40 42 43 43 44 44 45 46 48 49 50 51 52 52 53 53 54 55 57 57 57 57 58 59 59 59 60 60 61 61 62 62 62
31 32 33 34 35 37 38 39 39 39 39 40 41 43 44 44 45 46 48 49 50 51 51 52 53 53 55 56 56 57 58 58 59 60 60 61 61 61 61 61 62 62 61
31 32 33 33 34 35 37 37 38 38 39 39 40 41 42 43 45 46 48 49 49 50 51 52 53 53 54 55 56 58 58 59 59 59 60 60 60 60 60 60 61 61 60
32 33 33 33 33 34 35 36 37 37 38 39 41 43 44 45 46 47 47 48 48 49 51 52 53 54 54 55 56 57 58 59 59 60 60 60 60 60 59 59 60 59 58
Wind_Direction
237 237 236 236 236 235 236 236 236 236 236 236 237 236 235 236 239 244 248 251 255 258 261 263 265 267 270 272 275 277 280 282 284 285 287 288 290 291 292 294 295 296 296
236 236 236 235 236 236 236 237 237 237 238 238 238 237 236 238 240 243 248 251 255 258 260 262 264 266 268 271 274 277 279 280 283 284 286 288 289 290 291 292 294 295 295
235 236 237 236 236 236 235 235 235 237 238 239 239 239 239 241 242 244 248 251 254 257 260 263 264 266 268 270 273 276 279 281 282 284 286 288 289 289 290 290 291 293 294
235 236 238 237 237 237 236 235 237 238 239 240 240 240 241 242 244 246 248 253 255 257 260 263 265 266 267 269 272 275 278 280 283 284 286 288 288 289 289 290 290 291 292
235 235 237 238 237 237 237 237 238 239 241 241 241 242 242 243 246 248 250 253 255 257 259 262 264 265 267 270 272 275 278 279 282 284 285 287 288 288 289 290 290 291 292
235 235 236 236 236 236 237 237 237 239 241 241 242 242 243 243 245 249 251 253 255 257 259 261 263 266 269 271 272 274 277 280 282 283 285 286 287 287 289 290 290 290 291
236 236 236 236 236 236 236 237 238 238 240 241 242 242 243 244 245 248 251 253 255 256 259 262 264 266 269 271 273 275 277 279 282 283 284 284 285 288 289 290 290 290 291
236 236 238 236 236 236 237 237 238 238 240 241 242 242 244 245 247 249 251 255 257 258 260 263 264 267 268 272 275 275 276 279 280 282 284 285 286 288 289 290 290 290 291
238 237 238 236 236 236 236 236 237 239 240 242 243 243 245 246 248 250 252 254 257 260 263 263 265 267 269 271 273 275 276 278 280 282 284 286 287 288 289 290 290 291 290
239 238 239 237 236 235 235 236 237 238 239 241 243 244 247 248 250 252 253 255 258 261 264 266 267 268 270 271 273 274 276 277 279 281 283 285 286 288 289 290 290 290 290
241 240 241 238 236 236 236 236 237 239 240 241 243 246 247 249 251 253 254 256 259 261 263 266 268 269 270 272 273 275 277 278 280 282 283 285 286 288 288 289 289 289 289
243 243 242 239 236 236 236 238 239 239 240 241 243 245 248 250 252 254 255 256 259 262 263 265 266 268 271 272 273 275 277 279 280 281 283 285 286 287 287 287 288 288 288
246 245 243 240 237 236 237 238 240 240 241 242 244 246 248 250 251 253 254 256 259 261 263 264 267 269 271 273 275 276 276 277 279 281 282 284 285 286 287 287 287 287 287
249 247 243 240 239 238 237 238 240 241 242 244 245 247 248 250 251 253 254 256 258 260 262 264 267 269 270 272 274 276 277 279 280 281 282 284 284 284 285 286 286 287 287
249 247 245 241 240 239 239 240 242 243 244 244 245 248 250 251 253 253 254 256 258 260 262 264 267 269 270 272 275 276 278 280 281 282 284 284 284 284 284 285 286 286 286
251 249 246 243 243 243 242 243 245 245 246 247 247 249 251 253 253 254 255 256 259 261 262 264 267 268 270 272 274 276 277 279 282 283 284 284 285 285 285 285 286 287 287
252 250 247 245 245 246 245 246 247 248 248 249 250 251 252 254 255 255 256 257 259 262 264 265 266 268 270 272 273 275 277 280 282 283 284 284 285 285 285 286 286 287 288
252 251 249 247 247 247 247 249 247 248 249 250 251 252 253 255 256 257 257 259 260 263 264 265 267 268 270 272 273 274 277 280 282 282 284 285 286 286 286 286 287 287 287
253 252 252 250 250 249 250 250 249 249 249 250 251 252 253 256 257 258 259 260 260 263 265 266 267 268 270 272 273 275 277 280 281 282 284 284 285 287 287 287 287 287 287
254 254 253 252 252 252 252 251 251 251 251 251 252 253 256 257 258 259 259 259 260 262 264 266 267 269 270 273 275 276 277 279 280 282 283 284 285 286 287 287 287 287 287
256 256 255 254 253 253 253 251 251 252 253 253 254 256 258 258 259 260 260 261 261 262 264 267 269 270 271 273 275 276 278 279 281 282 283 284 285 286 287 287 288 288 288
259 256 256 257 256 255 255 252 252 254 255 257 258 259 259 260 260 261 261 263 264 265 267 269 270 271 273 274 275 277 279 279 281 282 283 284 285 286 286 287 288 288 288
258 257 258 258 258 258 256 255 254 257 258 258 260 260 261 263 263 263 264 265 267 268 269 270 271 272 274 276 277 278 279 280 281 282 282 283 285 285 286 287 287 288 289
259 259 259 259 258 258 257 256 256 258 259 259 260 261 262 263 265 266 266 267 268 269 270 271 272 273 274 276 277 278 279 280 281 282 282 283 284 285 286 286 287 288 289
261 261 260 260 260 260 258 258 259 261 261 260 261 263 264 265 266 267 268 268 269 270 270 272 274 275 276 277 278 279 280 280 281 282 282 283 283 285 285 286 287 287 288
265 264 263 263 263 262 261 261 262 263 262 262 263 265 266 267 268 269 269 270 271 272 272 273 275 277 278 279 280 282 282 282 282 282 282 283 284 285 286 287 287 288 288